• MPC Preparation (Info)

  • MPEC 2024-F103 : 2024 FB3

    The following Minor Planet Electronic Circular may be linked-to from your own Web pages, but must not otherwise be redistributed electronically.

    A form allowing access to any MPEC is at the bottom of this page.


    Read MPEC 2024-F102 Read MPEC 2024-F104


    M.P.E.C. 2024-F103                               Issued 2024 March 29, 23:10 UT
    
         The Minor Planet Electronic Circulars contain information on unusual
             minor planets, routine data on comets and natural satellites,
             and occasional editorial announcements.  They are published
        on behalf of Division F of the International Astronomical Union by the
              Minor Planet Center, Smithsonian Astrophysical Observatory,
                              Cambridge, MA 02138, U.S.A.
    			  
                 Prepared using the Tamkin Foundation Computer Network
    
                                  MPC@CFA.HARVARD.EDU
                URL https://www.minorplanetcenter.net/    ISSN 1523-6714
    
                                    2024 FB3                                 
    
    
    Observations:
         K24F03B  C2024 02 03.51462412 35 04.682+30 15 11.78         23.09GVEF103F52
         K24F03B  C2024 02 03.52641612 35 06.953+30 15 24.02         22.56GVEF103F52
         K24F03B  C2024 02 03.53820012 35 09.208+30 15 35.97         21.78GVEF103F52
         K24F03B  C2024 02 18.62145313 25 09.031+34 17 09.22         21.62GVEF103F52
         K24F03B  C2024 02 18.62994313 25 10.590+34 17 16.20         22.77GVEF103F52
         K24F03B  C2024 02 18.63844613 25 12.134+34 17 23.33         22.55GVEF103F52
         K24F03B  C2024 02 18.64691913 25 13.698+34 17 30.14         22.89GVEF103F52
         K24F03B  C2024 03 02.58330314 04 18.102+36 38 48.63         22.61GVEF103F51
         K24F03B  C2024 03 02.59474014 04 19.871+36 38 54.06         22.37GVEF103F51
         K24F03B  C2024 03 02.60546314 04 21.516+36 38 58.63         22.77GVEF103F51
         K24F03B  C2024 03 02.61619614 04 23.118+36 39 02.82         22.06GVEF103F51
         K24F03B* C2024 03 18.59477314 40 03.688+37 15 22.19         22.03wXEF103F52
         K24F03B  C2024 03 18.61968214 40 05.874+37 15 16.46         22.22wXEF103F52
         K24F03B  C2024 03 18.63212414 40 06.997+37 15 13.47         22.19wXEF103F52
         K24F03B 1C2024 03 19.59966214 41 42.345+37 11 36.87         21.92GVEF103T12
         K24F03B 1C2024 03 19.60203214 41 42.534+37 11 36.31         22.34GVEF103T12
         K24F03B 1C2024 03 19.60441214 41 42.734+37 11 35.68         21.77GVEF103T12
         K24F03B KC2024 03 22.38757214 45 53.814+36 57 07.03         22.1 GVEF103H01
         K24F03B KC2024 03 22.40008114 45 54.720+36 57 02.30         21.6 GVEF103H01
    
    Observer details:
    F51 Pan-STARRS 1, Haleakala.  Observers J. Herman, T. Lowe, P. Minguez, A.
        Schultz, I. Smith.  Measurers K. Chambers, T. de Boer, J. Fairlamb, H.
        Gao, M. Huber, C.-C. Lin, E. Magnier, Y. Ramanjooloo, R. Wainscoat, R.
        Weryk.  1.8-m Ritchey-Chretien + CCD.
    F52 Pan-STARRS 2, Haleakala.  Observers J. Herman, T. Lowe, P. Minguez, A.
        Schultz, I. Smith.  Measurers K. Chambers, T. de Boer, J. Fairlamb, H.
        Gao, M. Huber, C.-C. Lin, E. Magnier, Y. Ramanjooloo, R. Wainscoat, R.
        Weryk.  1.8-m Ritchey-Chretien + CCD.
    H01 Magdalena Ridge Observatory, Socorro.  Observers W. H. Ryan, E. V. Ryan.
        Measurer W. H. Ryan.  2.4-m f/8.9 Ritchey-Chretien + CCD.
    T12 University of Hawaii 88-inch telescope, Maunakea.  Observer J. Fairlamb.
        Measurers R. Weryk, J. Fairlamb, Y. Ramanjooloo, R. Wainscoat.  2.24-m
        f/10.1 reflector + CCD.
    
    Orbital elements:
    2024 FB3                                                 Earth MOID = 0.3192 AU
    Epoch 2024 Mar. 31.0 TT = JDT 2460400.5                 Veres                   
    M   3.49068              (2000.0)            P               Q                  
    n   0.30530641     Peri.   93.32926     -0.97749856     +0.04886061             
    a   2.1842991      Node    89.54226     -0.12760921     -0.91158050             
    e   0.4400762      Incl.   11.84190     +0.16796566     -0.40820783             
    P   3.23           H   22.74          G   0.15           U   6                  
    Residuals in seconds of arc
    240203 F52  0.1-  0.4+    240302 F51  0.1-  0.1-    240319 T12  0.2+  0.1-
    240203 F52  0.1+  0.3+    240302 F51  0.2+  0.3+    240319 T12  0.1+  0.0
    240203 F52  0.1+  0.1-    240302 F51  0.4+  0.2+    240319 T12  0.1+  0.0
    240218 F52  0.1-  0.2-    240302 F51  0.0   0.2-    240322 H01  0.2-  0.2+
    240218 F52  0.0   0.1-    240318 F52  0.0   0.0     240322 H01  0.2-  0.0
    240218 F52  0.2-  0.1+    240318 F52  0.1-  0.1+
    240218 F52  0.0   0.0     240318 F52  0.2+  0.1+
    
    Ephemeris:
    2024 FB3                 a,e,i = 2.18, 0.44, 12                  q = 1.2230
    Date    TT    R. A. (2000) Decl.     Delta      r    Elong.  Phase     V
    2024 02 28    13 54 09.2 +36 08 12   0.3551  1.2412   128.1    38.9    22.5
    ...
    2024 03 14    14 31 36.3 +37 22 54   0.3344  1.2244   126.9    40.5    22.4
    ...
    2024 03 22    14 45 20.7 +36 59 27   0.3280  1.2233   127.3    40.4    22.3
    ...
    2024 03 28    14 52 33.6 +36 10 00   0.3249  1.2261   128.3    39.7    22.3
    2024 03 29    14 53 30.4 +35 59 01   0.3245  1.2269   128.5    39.6    22.3
    2024 03 30    14 54 22.9 +35 47 14   0.3241  1.2278   128.7    39.4    22.3
    ...
    2024 04 05    14 58 10.3 +34 19 23   0.3229  1.2347   130.5    38.1    22.3
    ...
    2024 04 13    14 59 44.8 +31 34 30   0.3241  1.2486   133.6    35.6    22.2
    ...
    2024 04 28    14 55 52.5 +24 01 51   0.3388  1.2877   141.0    29.5    22.2
    
    M. P. C. Staff               (C) Copyright 2024 MPC           M.P.E.C. 2024-F103
    


    Read MPEC 2024-F102 Read MPEC 2024-F104


    MPEC number:

    Enter an MPEC number in one of the following forms:

    • 1997-B01 (the full form)
    • J97B01 (the packed version of the full form)
    • B01 (the abbreviated form)